Other Public Products
Issued by NWS Grand Forks, ND

Home | Current Version | Previous Version | Text Only | Print | Product List | Glossary Off
Versions: 1 2 3 4 5 6 7 8 9 10 11 12 13 14 15 16 17 18 19 20 21 22 23 24 25 26 27 28 29 30 31 32 33 34 35 36 37 38 39 40 41 42 43 44 45 46 47 48 49 50

000
FPUS83 KFGF 171010
OPUFGF
PRAIRIE TO PINES WEATHER ROUNDUP
NATIONAL WEATHER SERVICE EASTERN NORTH DAKOTA/GRAND FORKS ND
400 AM CST SUN DEC 17 2017

 **SATELLITE DATA USED TO AUGMENT SKY COVER AT AUTOMATED STATIONS**
 *****  WEATHER ACROSS EASTERN NORTH DAKOTA  *****

CITY           SKY/WX    TMP DP  RH WIND       PRES   REMARKS
GRAND FORKS    FAIR      17  15  92 S6        30.02F WCI   9
GRND FORKS AFB FAIR      18  16  92 S5        30.01F WCI  11
GRND FORKS NWS   N/A     18 N/A N/A S3          N/A
BUXTON         NOT AVBL
DEVILS LAKE    FAIR      17  15  92 SW7       30.00F WCI   8
FARGO          FAIR      22  21  96 S5        30.04F WCI  16
WAHPETON ARPT    N/A     21  19  93 CALM      30.07F VSB 3/4
$$

 *****  WEATHER ACROSS CENTRAL AND WESTERN NORTH DAKOTA  *****

CITY           SKY/WX    TMP DP  RH WIND       PRES   REMARKS
JAMESTOWN      FAIR      25  23  92 W5        30.01F WCI  19
BISMARCK       FAIR      24  20  84 W5        30.05S WCI  18
MINOT          FAIR      23  16  74 SW10      29.98F WCI  12
MINOT AFB      FAIR      20  15  81 W7        29.97F WCI  11
GARRISON         N/A     19  16  88 NW3       30.00F
WILLISTON      FAIR      15  12  88 S5        30.01F WCI   8
DICKINSON      FAIR      18  14  84 W3        29.98F
HETTINGER      CLOUDY    21  18  88 CALM      30.03F
$$

 *****  OTHER OBSERVATIONS NORTHEAST NORTH DAKOTA  *****

CITY           SKY/WX    TMP DP  RH WIND       PRES   REMARKS
WALHALLA       FAIR      21  19  93 W9        29.97S WCI  11
LANGDON        NOT AVBL
CAVALIER       FAIR      10   9  92 W3        29.97F
GRAFTON        NOT AVBL
CANDO          FAIR      10  10 100 W8        30.00S WCI  -1
FORT TOTTEN      N/A     22  18  85 CALM      29.95S
ROLLA          FAIR      12  10  92 S8        29.94F WCI   1
RUGBY          NOT AVBL
 ***** THE ABOVE OBSERVATIONS ARE NON NWS ARE NOT QUALITY
        CONTROLLED AND MAY MIS-REPORT RAIN FOR SNOW...
$$

 *****  OTHER OBSERVATIONS SOUTHEAST NORTH DAKOTA *****

CITY           SKY/WX    TMP DP  RH WIND       PRES   REMARKS
COOPERSTOWN    FAIR      19  19 100 W7        30.02S WCI  10
VALLEY CITY    NOT AVBL
OAKES            N/A     25  27 100 W3        30.04F
GWINNER          N/A     28  28 100 SW5       30.04F WCI  23
SHEYENNE NWR     N/A     25  25 100 CALM      29.95S
BUFFALO        NOT AVBL
WYNDMERE       NOT AVBL
 ***** THE ABOVE OBSERVATIONS ARE NON NWS ARE NOT QUALITY
       CONTROLLED AND MAY MIS-REPORT RAIN FOR SNOW...
$$

  *****  WEATHER ACROSS NORTHERN MINNESOTA  *****

CITY           SKY/WX    TMP DP  RH WIND       PRES   REMARKS
FLAG ISLAND    CLOUDY    19  18  93 S5        29.97F WCI  13
WARROAD        FOG       10   7  85 CALM      29.98F VSB 3/4
ROSEAU         FAIR      18  12  79 S7        29.98F WCI   8
HALLOCK        FAIR      12  10  92 S6        29.99S WCI   3
THF RVR FALLS  LGT SNOW  23  21  93 SW10      30.03S VSB 3/4 WCI  12
HALSTAD        NOT AVBL
FOSSTON        FOG       21  21 100 S9        30.03F VSB 1   WCI  11
BAUDETTE       CLOUDY    22  20  92 S12       30.00S WCI  10
WASKISH        CLOUDY    23  21  93 SW3       30.02F
CROOKSTON      FAIR      18  18 100 S3        30.04S FOG
$$
  *****  WEATHER ACROSS CENTRAL AND WEST MINNESOTA  *****

CITY           SKY/WX    TMP DP  RH WIND       PRES   REMARKS
BEMIDJI        FOG       22  21  96 SW6       30.02F VSB 3/4 WCI  15
PARK RAPIDS    CLOUDY    24  21  88 SW3       30.03F FOG
WADENA         CLOUDY    25  25 100 CALM      30.06R FOG
DETROIT LAKES  FOG       25  23  93 SE5       30.05F VSB 1/4 WCI  19
MOORHEAD       CLOUDY    21  19  93 CALM      30.06F
FERGUS FALLS   FOG       23  23 100 E6        30.10S VSB 1/4 WCI  16
ELBOW LAKE     CLOUDY    24  23  99 CALM      30.08R FOG
MORRIS MN      CLOUDY    27  27 100 CALM      30.07S FOG
STAPLES        CLOUDY    25  25 100 S3        30.07R FOG
WHEATON        FOG       21  19  93 SE5       30.10R VSB 1   WCI  15
$$
  *****  WEATHER ELSEWHERE ACROSS MINNESOTA  *****

CITY           SKY/WX    TMP DP  RH WIND       PRES   REMARKS
DULUTH         CLOUDY    20  18  92 CALM      30.06F
INTRNTL FALLS  CLOUDY    22  19  89 VRB3      30.02F
ELY            CLOUDY    19  18  93 CALM      30.05F
CLOQUET        CLOUDY    19  18  93 CALM      30.08R
BRAINERD       CLOUDY    24  22  91 SE3       30.09R FOG
HIBBING        CLOUDY    19  18  95 CALM      30.05F FOG
ALEXANDRIA     CLOUDY    27  26  96 CALM      30.07S FOG
SAINT CLOUD    CLOUDY    19  17  92 N5        30.11F WCI  12
MINNEAPOLIS    CLOUDY    20  18  92 N3        30.11S
$$

  *****  WEATHER ACROSS SOUTH DAKOTA  *****

CITY           SKY/WX    TMP DP  RH WIND       PRES   REMARKS
SIOUX FALLS    FOG       22  22 100 NW5       30.05R VSB 1   WCI  16
BROOKINGS      CLOUDY    27  27 100 CALM      30.04R FOG
WATERTOWN      CLOUDY    26  26 100 CALM      30.04S
HURON          FOG       26  26 100 MISG      30.06F VSB 1/2
SISSETON         N/A     27  26  96 CALM      30.06R
ABERDEEN       FAIR      21  21 100 CALM      30.06S
MITCHELL       FAIR      27  27 100 CALM      30.08R FOG
PIERRE         MOCLDY    28  28 100 CALM      30.05R
MOBRIDGE       FAIR      28  24  85 N3        30.02F
RAPID CITY     CLOUDY    29  26  89 N6        30.03F WCI  23
$$

  *****  SOME WEATHER IN NEARBY STATES *****

CITY           SKY/WX    TMP DP  RH WIND       PRES   REMARKS
GLASGOW MT     FAIR      18  16  92 E13       29.95F WCI   5
GREAT FALLS MT FAIR      24  12  60 SW21G30   29.87F WCI   9
CHEYENNE WY    CLOUDY    26  26 100 SE3       29.91R FOG
SCOTTSBLUFF NE CLOUDY    31  29  92 E7        30.01R WCI  24
OMAHA NE       CLOUDY    30  24  78 N9        29.97S WCI  22
DES MOINES IA  CLOUDY    31  24  75 NE5       29.98S
DAVENPORT IA   FAIR      30  26  85 E8        30.05R WCI  22
CHICAGO IL     FAIR      33  31  92 N7        30.05F FOG
EAU CLAIRE WI  CLOUDY    25  22  88 E5        30.10F WCI  19
LA CROSSE WI   CLOUDY    30  26  85 CALM      30.10S
$$

  *****  SOME NATIONAL WEATHER *****

CITY           SKY/WX    TMP DP  RH WIND       PRES   REMARKS
LA GUARDIA NY  CLOUDY    34  21  59 N7        30.27R
RALEIGH NC     FAIR      31  24  75 CALM      30.26F
ATLANTA GA     MOCLDY    37  31  78 CALM      30.22S
NEW ORLEANS LA CLOUDY    67  65  93 SE8       30.08R
OKLAHOMA CITY  CLOUDY    42  41  96 S14       29.98R FOG
ALBUQUERQUE NM MOCLDY    34  15  46 E7        29.96R
SALT LAKE CITY MOCLDY    31  27  85 N3        30.14R
LOS ANGELES CA FAIR      59  27  29 N5        29.80S
BOISE ID       FAIR      19  15  84 CALM      30.25R
SEATTLE WA     CLOUDY    43  40  89 S8        30.21F
$$

*** WEATHER ACROSS MANITOBA...SASKATCHEWAN AND ONTARIO ***
                ***ONTARIO***

CITY           SKY/WX    TMP DP  RH WIND       PRES   REMARKS
GERALDTON      FLURRIES   5   1  85 S6        30.08F WCI  -6
THUNDER BAY    CLOUDY    14  12  92 W3        30.11F
SIOUX LOOKOUT  FRZ DRZL  16  14  93 S9        29.96F WCI   4
TORONTO        MOCLDY    10   5  79 N6        30.26F WCI   1
BIG TROUT LK   FLURRIES   0  -6  78 SW10      29.89S WCI -17
PICKLE LAKE    NOT AVBL
DRYDEN         CLOUDY    16  14  93 S9        29.96S FOG     WCI   4
KENORA         FOG       16  14  93 S9        29.93F VSB 1   WCI   4
$$
                *** MANITOBA***

CITY           SKY/WX    TMP DP  RH WIND       PRES   REMARKS
BRANDON        CLEAR     14  12  92 W10       29.92S WCI   1
DAUPHIN        CLOUDY    28  23  80 W15       29.86R WCI  17
ISLAND LAKE    FLURRIES   7   5  92 S6        29.81F WCI  -3
PILOT MOUND      N/A      9   5  85 SW6         N/A  WCI  -1
THE PAS        CLOUDY    14  10  85 S6        29.75F WCI   5
THOMPSON       FLURRIES   0  -6  78 S3        29.74F
WINNIPEG       CLEAR     10   9  92 S3        29.93F
LYNN LAKE      FLURRIES   3   1  92 SW3       29.64F
CHURCHILL      FLURRIES   0  -4  85 VRB3      29.75F
GILLAM         FLURRIES   0  -4  85 SW6       29.77F WCI -12
$$
                ***SASKATCHEWAN***

CITY           SKY/WX    TMP DP  RH WIND       PRES   REMARKS
ESTEVAN        CLEAR     16  12  86 SW8       29.95F WCI   5
KINDERSLEY     PTCLDY    18  14  86 SW10      29.73F WCI   6
LLOYDMINSTER   MOCLDY    21  19  93 S9        29.61F WCI  11
PRINCE ALBERT  CLEAR     14  12  92 SW3       29.76F
REGINA         CLEAR     19  16  86 SW8       29.88F WCI   9
YORKTON        CLOUDY    23  19  86 SW12      29.84F WC


USA.gov is the U.S. government's official web portal to all federal, state and local government web resources and services.